STARLINK-1297, 45395

Orbit data source: Space-Track

STARLINK-1297, 45395 is a payload satellite owned by SpaceX/Seattle (US) in LEO that was launched on Wed, 18 Mar 2020 UTC via an FALCON 9 launch vehicle from the Air Force Eastern Test Range (AFETR). Payload-class satellites include a variety of spacecraft equipped with specific instruments for various scientific and technological missions. These include communications satellites like Starlink; space stations such as the ISS; scientific satellites like the Hubble; Earth observation satellites from companies like Planet Labs, Umbra, and HawkEye 360; GPS; miniature CubeSats for education and research; and military/defense satellites.

Loading next visibility...
Identifier
45395, 2020-019AM
Orbit
LEO
Country
Flag of USUS
Related business
Manufacturer
SpaceX/Seattle
Mission
Operational Commercial Communications
Bus & Motor
STARLINK, Unknown motor
Mass
260 kg wet, ~248 kg dry
Launch date (UTC)
2020-03-18 (6 years ago)
Launch vehicle
FALCON 9
Launch site
Air Force Eastern Test Range (AFETR)
Object type
Payload
Rocket body
Debris
Shape & HBR
Box + 1 Pan, 10.1 m
Radar Cross Section
13.562 m², Large (>1 m²)

Expand to show TLE details & history
Last TLE update: 1 day ago

TLE from 1 day ago
0 STARLINK-1297
1 45395U 20019AM  25340.04156049 -.00000980  00000-0 -46949-4 0  9996
2 45395  53.0529 207.0221 0001366  86.6344 273.4801 15.06389547315072
Epoch: 2025-12-06T00:59Z
TLE epoch observation values (Epoch: 2025-12-06T00:59:50.826Z)
Latitude
-0.00003°
Longitude
116.98531°
Altitude
548.065 km
Speed
7.589 km/s
True Right ascension
13h 48m 05s
True Declination
0° 00' 00"
Sunlit
Object was in daylight at epoch
Visualization orbit readout
Latitude
Unknown
Longitude
Unknown
Altitude
Unknown
Speed
Unknown
Apparent Right ascension
Unknown
Apparent Declination
Unknown
Sunlit
N/A
Visualization observer readout
Local Sidereal Time
04:08:19
Azimuth
Unknown
Elevation
Unknown
Doppler factor
Unknown
Orbital elements
Apogee altitude
548.461 km
Perigee altitude
546.569 km
Semi-major axis
6,925.652 km
Eccentricity
0.00014
Inclination
53.0529°
RAAN
207.0221°
Arg. of periapsis
86.6344°
True anomaly
273.46448°
Mean anomaly
273.4801°
Eccentric anomaly
273.47229°
Mean motion
3.76576 °/min
Orbital period
95.6 mins
BSTAR
-0.000046949
Loading maneuver chart data...
Computing Atmospheric mass density...

Documentation

Showing up to 5 results
|